Wind_Speed
42 38 36 35 32 31 39 49 52 51 50 55 51 52 57 56 62 64 69 65 70 88 94 96 91 90 87 81 64 69 74 71 68 63 58 53 49 45
41 37 34 30 28 23 26 37 50 53 52 53 51 50 56 55 59 66 69 71 70 87 97 97 92 83 85 79 74 67 68 71 69 66 61 57 53 49
38 32 27 24 20 17 18 25 38 50 54 52 51 48 52 55 57 60 64 66 74 88 98 96 95 84 84 81 79 69 65 65 68 66 63 60 57 53
33 27 23 20 16 11 12 16 27 42 52 53 51 47 48 53 55 59 59 58 73 87 95 98 95 91 80 84 78 75 67 64 63 67 65 62 59 56
30 25 21 19 18 11 6 9 18 31 46 51 51 47 47 52 54 60 61 60 66 75 86 96 97 95 86 86 83 76 72 68 62 63 67 63 60 59
29 24 21 17 15 9 2 6 12 21 35 45 48 46 47 51 52 58 58 55 62 70 78 95 95 91 87 85 81 75 72 67 64 62 68 65 62 60
27 24 20 17 12 7 1 6 11 16 24 33 40 43 46 49 51 54 54 54 56 66 71 89 95 96 96 89 83 77 71 69 64 62 61 64 65 63
26 22 20 18 15 9 6 7 11 14 19 25 32 36 42 45 48 50 52 51 51 61 67 83 97 97 96 90 80 76 74 68 66 61 56 63 61 71
24 21 20 19 17 12 10 11 11 13 17 22 30 34 40 41 42 47 50 49 51 54 65 79 97 99 97 98 89 81 73 77 67 64 51 53 56 63
23 20 19 19 15 11 11 10 12 13 14 18 26 31 33 35 36 40 47 50 47 55 61 74 92 95 94 85 87 73 78 74 67 61 56 54 57 57
24 20 18 18 14 10 9 8 9 10 11 14 18 25 29 32 34 36 45 51 46 52 59 65 77 86 94 94 90 88 83 77 69 65 65 45 52 55
24 19 18 18 14 12 9 6 8 12 11 13 22 25 28 32 35 39 45 45 41 46 55 58 61 76 81 89 84 84 82 78 72 67 62 55 46 55
24 21 18 18 17 16 14 8 8 10 16 16 15 24 26 33 36 43 43 43 38 46 50 55 61 59 68 74 77 80 79 76 71 65 59 54 52 50
20 21 18 18 17 16 15 13 12 16 18 17 15 13 25 26 30 37 47 45 54 52 54 55 50 63 67 72 62 66 82 75 69 64 55 53 49 49
19 21 22 21 19 16 15 15 17 17 19 21 20 17 13 20 24 29 44 45 46 57 51 50 57 57 72 69 74 64 64 66 66 61 53 45 52 49
20 22 23 24 22 20 18 16 16 20 21 20 24 19 21 25 22 22 32 39 35 41 50 43 49 56 55 64 50 55 63 71 65 62 64 70 53 50
23 24 25 25 24 23 20 18 15 13 15 18 20 22 23 29 34 29 29 28 29 35 45 42 45 49 52 57 63 66 56 66 69 62 57 57 58 52
27 24 23 23 24 24 23 21 21 17 13 15 21 28 26 28 36 32 25 30 31 31 39 41 36 52 47 49 56 52 51 62 64 61 66 64 58 54
27 24 23 23 23 24 24 24 22 21 20 15 16 26 28 27 31 35 29 30 30 28 36 36 39 42 48 47 52 56 52 53 51 55 55 52 48 50
27 26 24 23 24 25 25 25 24 21 20 20 22 23 22 25 28 28 28 27 27 28 28 28 29 37 38 39 49 52 51 51 54 53 50 51 51 54
25 25 24 25 25 25 24 24 25 26 23 22 22 22 21 22 25 29 30 33 29 25 25 30 31 34 36 39 46 52 50 49 49 49 53 58 57 56
27 25 24 24 24 25 25 25 25 25 25 24 22 21 25 24 23 27 29 25 22 26 29 30 29 30 33 35 36 38 39 43 46 46 46 49 50 50
26 26 26 25 25 25 26 27 27 25 24 23 22 21 18 16 19 22 25 25 24 26 25 25 28 32 33 36 39 41 41 43 45 45 45 46 48 50
Wind_Direction
319 313 308 302 293 269 250 234 226 226 223 219 217 216 217 217 217 214 213 215 216 213 211 210 213 212 210 210 203 204 205 205 202 202 202 205 207 206
324 320 313 305 299 279 257 239 224 220 221 215 216 213 214 216 216 214 216 218 220 212 211 211 213 213 207 208 208 206 209 207 207 204 204 204 207 208
332 329 325 317 308 290 263 240 225 215 216 214 213 211 212 216 213 213 215 222 216 210 211 209 212 210 206 207 206 204 203 208 209 209 206 208 206 209
341 340 335 330 324 308 274 240 222 211 210 212 211 211 209 215 211 210 212 215 209 207 210 208 209 207 208 210 204 204 203 207 206 211 208 210 209 210
347 345 342 336 333 334 276 228 213 208 206 207 211 209 208 214 211 208 208 211 210 209 208 208 207 209 210 206 203 204 205 208 205 210 209 210 213 213
353 352 350 348 346 353 309 206 196 202 203 204 207 207 208 211 210 205 207 213 213 211 209 206 206 206 206 201 203 203 204 208 208 210 210 212 213 216
358 357 360 358 359 4 20 165 164 179 192 199 203 203 206 207 207 202 206 210 211 208 207 205 203 203 202 206 203 203 205 209 208 204 209 215 219 218
1 2 4 7 15 32 80 117 146 162 177 187 195 200 201 200 202 201 204 208 210 209 205 202 201 202 205 205 205 204 206 210 214 211 214 216 220 217
5 8 9 12 24 48 77 101 118 152 167 177 185 191 193 194 196 200 203 206 208 209 204 201 200 201 203 206 208 203 205 212 214 215 215 217 215 217
13 15 16 20 33 61 82 104 119 133 150 171 180 184 188 190 196 200 202 205 207 206 205 202 200 201 201 203 203 205 204 209 212 216 216 219 219 230
20 23 22 28 40 55 75 89 139 144 157 176 186 190 194 194 196 200 204 204 205 203 203 204 201 200 199 203 208 211 213 214 214 217 219 230 229 222
28 33 30 37 47 59 71 99 168 169 141 176 179 187 189 192 195 196 190 193 197 195 194 197 196 202 202 204 207 209 211 214 217 220 225 230 239 232
29 39 38 41 40 43 65 88 120 157 165 161 170 178 181 188 192 187 183 185 187 181 176 185 190 188 199 205 213 211 213 215 218 220 223 227 225 225
31 41 49 48 45 41 38 66 97 123 126 150 141 156 166 175 188 189 181 177 175 173 170 177 184 189 184 183 180 205 214 216 218 220 224 231 212 211
42 50 55 58 54 49 43 50 76 104 123 129 134 136 158 169 180 192 193 174 170 177 171 171 178 184 199 207 207 216 213 214 216 216 211 214 207 200
48 53 56 60 61 59 53 45 53 82 100 116 125 139 151 149 155 185 190 171 159 163 165 163 170 178 177 187 200 201 219 216 213 213 214 227 219 210
53 54 56 56 60 66 66 67 70 73 90 114 124 132 144 138 139 158 165 171 155 149 168 172 167 169 183 182 190 197 201 212 214 214 220 213 210 214
50 53 57 59 61 65 68 69 80 88 93 99 116 122 126 144 140 150 138 150 160 146 168 179 177 183 176 198 193 194 197 204 208 211 218 215 214 227
51 53 57 61 63 65 68 71 77 94 104 114 113 120 127 139 144 143 148 134 133 145 164 162 169 177 195 187 194 200 201 203 203 209 219 217 223 229
55 58 63 68 70 68 68 72 80 91 102 109 119 131 128 131 141 141 143 147 159 157 154 159 164 179 188 193 201 206 212 211 213 215 216 223 228 233
58 62 65 69 71 72 71 73 74 79 91 109 118 124 131 137 141 155 153 155 159 156 168 171 170 176 187 197 205 210 215 220 227 228 232 231 231 233
60 64 68 71 73 75 76 77 78 79 80 88 106 118 126 140 151 156 161 162 171 169 177 181 179 183 188 192 197 203 208 212 217 219 221 225 229 233
58 65 68 71 76 80 81 81 82 83 85 89 92 99 112 119 129 139 148 159 163 163 168 176 186 191 195 199 203 206 211 215 217 220 222 224 226 230
Height
5432 5425 5419 5413 5409 5405 5406 5414 5425 5432 5441 5452 5464 5474 5483 5492 5503 5515 5528 5542 5552 5566 5581 5597 5614 5627 5645 5660 5673 5684 5699 5712 5724 5736 5747 5759 5768 5777
5421 5413 5407 5401 5396 5394 5394 5396 5406 5417 5426 5438 5449 5460 5470 5480 5490 5501 5514 5527 5539 5553 5569 5583 5602 5619 5632 5645 5664 5678 5690 5705 5717 5727 5738 5750 5760 5770
5412 5404 5397 5392 5388 5385 5384 5385 5390 5402 5412 5425 5437 5449 5458 5468 5478 5489 5501 5512 5524 5540 5555 5573 5591 5610 5624 5638 5653 5669 5683 5696 5709 5720 5729 5741 5752 5762
5405 5398 5392 5386 5382 5379 5377 5378 5381 5390 5400 5413 5425 5437 5448 5457 5468 5478 5489 5500 5510 5525 5543 5560 5578 5600 5616 5631 5647 5661 5675 5688 5699 5711 5721 5733 5744 5754
5402 5395 5389 5383 5379 5376 5374 5374 5377 5383 5392 5404 5416 5428 5438 5447 5457 5468 5480 5491 5504 5516 5530 5549 5568 5588 5608 5624 5639 5653 5666 5677 5691 5702 5714 5725 5737 5747
5400 5393 5387 5382 5377 5374 5372 5372 5375 5380 5388 5398 5408 5419 5429 5438 5448 5460 5472 5483 5494 5506 5520 5537 5557 5577 5596 5613 5629 5645 5656 5669 5682 5694 5706 5717 5728 5738
5399 5392 5386 5382 5378 5375 5373 5373 5375 5380 5387 5395 5404 5413 5422 5431 5442 5453 5465 5476 5485 5496 5509 5525 5546 5566 5587 5605 5621 5636 5649 5662 5673 5686 5698 5709 5719 5729
5399 5393 5388 5383 5379 5376 5374 5375 5377 5382 5387 5394 5401 5409 5417 5426 5437 5448 5458 5468 5478 5487 5500 5517 5536 5557 5577 5596 5612 5629 5644 5655 5666 5677 5687 5698 5708 5718
5401 5395 5390 5385 5381 5379 5378 5379 5381 5384 5389 5395 5401 5407 5415 5423 5433 5444 5454 5464 5472 5482 5494 5509 5528 5548 5567 5587 5605 5620 5636 5647 5658 5668 5679 5689 5700 5710
5403 5397 5393 5388 5385 5384 5383 5384 5386 5389 5392 5397 5402 5408 5415 5422 5430 5440 5450 5458 5468 5477 5488 5503 5520 5541 5561 5578 5597 5610 5624 5638 5650 5661 5671 5681 5690 5699
5406 5401 5396 5392 5389 5388 5388 5389 5390 5392 5395 5399 5403 5408 5413 5420 5428 5436 5445 5456 5465 5475 5486 5501 5517 5536 5555 5572 5588 5603 5617 5630 5642 5652 5663 5672 5679 5689
5410 5405 5401 5397 5394 5392 5391 5391 5392 5394 5397 5400 5404 5409 5413 5418 5426 5434 5443 5455 5464 5474 5484 5500 5517 5533 5550 5566 5581 5595 5608 5622 5634 5645 5654 5665 5673 5680
5415 5410 5406 5402 5398 5395 5395 5394 5394 5395 5398 5402 5405 5409 5414 5420 5426 5434 5444 5454 5464 5475 5487 5502 5517 5533 5546 5563 5576 5588 5601 5615 5628 5640 5650 5659 5666 5671
5420 5415 5411 5407 5403 5400 5398 5397 5397 5399 5401 5404 5408 5411 5415 5421 5427 5435 5445 5456 5466 5476 5490 5503 5516 5531 5543 5558 5568 5579 5594 5608 5623 5634 5645 5653 5658 5665
5425 5421 5416 5412 5409 5406 5403 5401 5402 5402 5404 5407 5411 5415 5418 5424 5431 5437 5445 5455 5465 5474 5486 5498 5511 5524 5541 5554 5563 5577 5591 5602 5616 5629 5639 5647 5653 5660
5430 5426 5422 5418 5415 5412 5409 5406 5405 5407 5408 5411 5414 5416 5421 5426 5433 5440 5450 5461 5467 5474 5487 5497 5509 5522 5535 5550 5559 5573 5580 5595 5608 5620 5631 5640 5650 5657
5435 5431 5428 5425 5422 5419 5416 5414 5413 5412 5412 5414 5416 5421 5425 5429 5437 5446 5455 5462 5470 5479 5488 5497 5507 5519 5532 5543 5555 5566 5574 5587 5600 5613 5623 5633 5642 5649
5441 5438 5435 5433 5430 5427 5424 5422 5420 5420 5419 5420 5423 5427 5431 5436 5442 5451 5458 5465 5471 5477 5489 5498 5506 5516 5527 5537 5549 5560 5570 5581 5593 5605 5617 5625 5632 5640
5448 5445 5442 5440 5437 5434 5431 5429 5428 5427 5428 5429 5430 5434 5439 5446 5451 5456 5465 5469 5476 5485 5492 5499 5508 5517 5525 5535 5546 5557 5565 5577 5586 5597 5607 5614 5624 5631
5457 5453 5451 5448 5445 5442 5440 5438 5436 5435 5435 5437 5440 5443 5447 5453 5459 5464 5470 5477 5484 5490 5497 5504 5509 5517 5527 5537 5546 5555 5563 5571 5582 5591 5599 5607 5613 5620
5465 5462 5459 5456 5453 5451 5449 5447 5445 5444 5444 5444 5446 5450 5454 5459 5465 5471 5477 5483 5489 5495 5501 5509 5515 5522 5530 5537 5545 5553 5560 5567 5574 5582 5589 5596 5603 5610
5474 5470 5468 5465 5462 5460 5458 5456 5454 5452 5452 5453 5454 5456 5460 5464 5469 5474 5480 5486 5491 5498 5505 5511 5516 5524 5531 5538 5545 5552 5558 5565 5571 5577 5582 5587 5594 5598
5482 5479 5476 5473 5471 5468 5466 5464 5463 5462 5462 5462 5463 5465 5467 5469 5475 5479 5484 5489 5497 5502 5508 5513 5519 5525 5530 5537 5545 5551 5556 5561 5566 5570 5575 5579 5583 5588